Time,TemperatureF,DewpointF,PressureIn,WindDirection,WindDirectionDegrees,WindSpeedMPH,WindSpeedGustMPH,Humidity,HourlyPrecipIn,Conditions,Clouds,dailyrainin,SoftwareType,DateUTC
2013-07-25 00:53:00,57.0,54.0,30.08,NNW,336,0.0,0.0,90,0.00,,,0.00,,2013-07-25 04:53:00,
2013-07-25 01:02:00,56.0,53.0,30.08,NNW,336,0.0,0.0,91,0.00,,,0.00,,2013-07-25 05:02:00,
2013-07-25 01:12:00,56.0,53.0,30.08,NNW,336,0.0,0.0,91,0.00,,,0.00,,2013-07-25 05:12:00,
2013-07-25 01:32:00,56.0,54.0,30.08,NNW,336,0.0,0.0,92,0.00,,,0.00,,2013-07-25 05:32:00,
2013-07-25 01:43:00,56.0,54.0,30.08,NNW,336,0.0,0.0,92,0.00,,,0.00,,2013-07-25 05:43:00,
2013-07-25 01:52:00,56.0,54.0,30.08,NNW,336,0.0,0.0,92,0.00,,,0.00,,2013-07-25 05:52:00,
2013-07-25 02:02:00,56.0,54.0,30.08,NNW,336,0.0,0.0,92,0.00,,,0.00,,2013-07-25 06:02:00,
2013-07-25 02:22:00,54.0,52.0,30.09,NNW,336,0.0,0.0,92,0.00,,,0.00,,2013-07-25 06:22:00,
2013-07-25 02:32:00,54.0,52.0,30.09,NNW,336,0.0,0.0,92,0.00,,,0.00,,2013-07-25 06:32:00,
2013-07-25 02:42:00,54.0,52.0,30.09,NNW,336,0.0,0.0,92,0.00,,,0.00,,2013-07-25 06:42:00,
2013-07-25 02:52:00,54.0,52.0,30.09,NNW,336,0.0,0.0,92,0.00,,,0.00,,2013-07-25 06:52:00,
2013-07-25 03:02:00,53.0,51.0,30.08,NNW,336,0.0,0.0,93,0.00,,,0.00,,2013-07-25 07:02:00,
2013-07-25 03:12:00,53.0,51.0,30.08,NNW,336,0.0,0.0,93,0.00,,,0.00,,2013-07-25 07:12:00,
2013-07-25 03:22:00,53.0,51.0,30.08,NNW,336,0.0,0.0,93,0.00,,,0.00,,2013-07-25 07:22:00,
2013-07-25 03:33:00,53.0,51.0,30.08,NNW,336,0.0,0.0,93,0.00,,,0.00,,2013-07-25 07:33:00,
2013-07-25 03:43:00,53.0,51.0,30.08,NNW,336,0.0,0.0,93,0.00,,,0.00,,2013-07-25 07:43:00,
2013-07-25 03:53:00,53.0,51.0,30.08,NNW,336,0.0,0.0,93,0.00,,,0.00,,2013-07-25 07:53:00,
2013-07-25 04:02:00,52.0,50.0,30.08,NNW,336,0.0,0.0,94,0.00,,,0.00,,2013-07-25 08:02:00,
2013-07-25 04:12:00,52.0,50.0,30.07,NNW,336,0.0,0.0,94,0.00,,,0.00,,2013-07-25 08:12:00,
2013-07-25 04:22:00,52.0,50.0,30.07,NNW,336,0.0,0.0,94,0.00,,,0.00,,2013-07-25 08:22:00,
2013-07-25 04:32:00,53.0,52.0,30.07,NNW,336,0.0,0.0,95,0.00,,,0.00,,2013-07-25 08:32:00,
2013-07-25 04:52:00,53.0,52.0,30.08,NNW,336,0.0,0.0,95,0.00,,,0.00,,2013-07-25 08:52:00,
2013-07-25 05:00:00,52.0,51.0,30.08,NNW,336,0.0,0.0,95,0.00,,,0.00,,2013-07-25 09:00:00,
2013-07-25 05:02:00,53.0,52.0,30.08,NNW,336,0.0,0.0,95,0.00,,,0.00,,2013-07-25 09:02:00,
2013-07-25 05:12:00,53.0,52.0,30.08,NNW,336,0.0,0.0,95,0.00,,,0.00,,2013-07-25 09:12:00,
2013-07-25 05:22:00,52.0,51.0,30.08,NNW,336,0.0,0.0,95,0.00,,,0.00,,2013-07-25 09:22:00,
2013-07-25 05:33:00,52.0,51.0,30.08,NNW,336,0.0,0.0,95,0.00,,,0.00,,2013-07-25 09:33:00,
2013-07-25 05:43:00,52.0,51.0,30.08,NNW,336,0.0,0.0,95,0.00,,,0.00,,2013-07-25 09:43:00,
2013-07-25 05:53:00,52.0,51.0,30.08,NNW,336,0.0,0.0,95,0.00,,,0.00,,2013-07-25 09:53:00,
2013-07-25 06:53:00,54.0,53.0,30.10,NNW,338,0.0,5.0,96,0.00,,,0.00,,2013-07-25 10:53:00,
2013-07-25 07:02:00,54.0,53.0,30.10,NNW,338,0.0,5.0,96,0.00,,,0.00,,2013-07-25 11:02:00,
2013-07-25 07:12:00,54.0,53.0,30.10,NNW,339,1.0,3.0,96,0.00,,,0.00,,2013-07-25 11:12:00,
2013-07-25 07:22:00,54.0,53.0,30.10,NNW,339,1.0,3.0,96,0.00,,,0.00,,2013-07-25 11:22:00,
2013-07-25 07:32:00,54.0,53.0,30.10,NNW,339,1.0,3.0,96,0.00,,,0.00,,2013-07-25 11:32:00,
2013-07-25 07:43:00,54.0,53.0,30.10,NNW,339,1.0,3.0,96,0.00,,,0.00,,2013-07-25 11:43:00,
2013-07-25 08:45:00,58.0,57.0,30.11,SE,130,1.0,1.0,96,0.00,,,0.00,,2013-07-25 12:45:00,
2013-07-25 08:53:00,58.0,57.0,30.11,SE,130,1.0,1.0,96,0.00,,,0.00,,2013-07-25 12:53:00,
2013-07-25 09:12:00,61.0,58.0,30.11,SE,146,0.0,1.0,90,0.00,,,0.00,,2013-07-25 13:12:00,
2013-07-25 09:22:00,61.0,58.0,30.11,SE,146,0.0,1.0,90,0.00,,,0.00,,2013-07-25 13:22:00,
2013-07-25 09:33:00,61.0,58.0,30.11,SE,146,0.0,1.0,90,0.00,,,0.00,,2013-07-25 13:33:00,
2013-07-25 09:43:00,61.0,58.0,30.11,SE,146,0.0,1.0,90,0.00,,,0.00,,2013-07-25 13:43:00,
2013-07-25 09:53:00,65.0,60.0,30.12,South,185,5.0,5.0,84,0.00,,,0.00,,2013-07-25 13:53:00,
2013-07-25 10:02:00,65.0,60.0,30.12,South,185,5.0,5.0,84,0.00,,,0.00,,2013-07-25 14:02:00,
2013-07-25 10:12:00,66.0,60.0,30.12,SSW,205,0.0,5.0,81,0.00,,,0.00,,2013-07-25 14:12:00,
2013-07-25 10:22:00,66.0,60.0,30.12,SSW,205,0.0,5.0,81,0.00,,,0.00,,2013-07-25 14:22:00,
2013-07-25 10:43:00,67.0,59.0,30.13,SW,236,4.0,6.0,76,0.00,,,0.00,,2013-07-25 14:43:00,
2013-07-25 10:53:00,67.0,59.0,30.13,SW,236,4.0,6.0,76,0.00,,,0.00,,2013-07-25 14:53:00,
2013-07-25 11:02:00,67.0,59.0,30.13,SW,236,4.0,6.0,76,0.00,,,0.00,,2013-07-25 15:02:00,
2013-07-25 11:12:00,67.0,59.0,30.13,SW,236,4.0,6.0,76,0.00,,,0.00,,2013-07-25 15:12:00,
2013-07-25 11:22:00,69.0,59.0,30.12,West,269,2.0,7.0,70,0.00,,,0.00,,2013-07-25 15:22:00,
2013-07-25 11:32:00,69.0,59.0,30.12,West,269,2.0,7.0,70,0.00,,,0.00,,2013-07-25 15:32:00,
2013-07-25 11:52:00,69.0,59.0,30.12,West,269,2.0,7.0,70,0.00,,,0.00,,2013-07-25 15:52:00,
2013-07-25 12:00:00,73.0,59.0,30.12,SW,232,0.0,7.0,62,0.00,,,0.00,,2013-07-25 16:00:00,
2013-07-25 12:23:00,73.0,59.0,30.12,SW,232,0.0,7.0,62,0.00,,,0.00,,2013-07-25 16:23:00,
2013-07-25 12:45:00,73.0,59.0,30.12,SW,232,0.0,7.0,62,0.00,,,0.00,,2013-07-25 16:45:00,
2013-07-25 12:53:00,73.0,59.0,30.12,SW,232,0.0,7.0,62,0.00,,,0.00,,2013-07-25 16:53:00,
2013-07-25 13:22:00,75.0,58.0,30.12,WSW,250,3.0,6.0,55,0.00,,,0.00,,2013-07-25 17:22:00,
2013-07-25 13:32:00,75.0,58.0,30.12,WSW,250,3.0,6.0,55,0.00,,,0.00,,2013-07-25 17:32:00,
2013-07-25 13:43:00,75.0,58.0,30.12,WSW,250,3.0,6.0,55,0.00,,,0.00,,2013-07-25 17:43:00,
2013-07-25 14:43:00,74.0,60.0,30.13,WNW,287,3.0,10.0,62,0.00,,,0.00,,2013-07-25 18:43:00,
2013-07-25 14:52:00,74.0,60.0,30.13,WNW,287,3.0,10.0,62,0.00,,,0.00,,2013-07-25 18:52:00,
2013-07-25 15:12:00,76.0,60.0,30.12,West,267,11.0,14.0,58,0.00,,,0.00,,2013-07-25 19:12:00,
2013-07-25 15:22:00,75.0,59.0,30.12,WNW,296,8.0,13.0,58,0.00,,,0.00,,2013-07-25 19:22:00,
2013-07-25 15:33:00,75.0,59.0,30.12,WNW,296,8.0,13.0,58,0.00,,,0.00,,2013-07-25 19:33:00,
2013-07-25 15:43:00,75.0,59.0,30.12,WNW,296,8.0,13.0,58,0.00,,,0.00,,2013-07-25 19:43:00,
2013-07-25 15:53:00,75.0,59.0,30.12,WNW,296,8.0,13.0,58,0.00,,,0.00,,2013-07-25 19:53:00,
2013-07-25 16:12:00,75.0,59.0,30.12,West,277,1.0,13.0,58,0.00,,,0.00,,2013-07-25 20:12:00,
2013-07-25 16:22:00,76.0,59.0,30.12,WNW,294,10.0,12.0,55,0.00,,,0.00,,2013-07-25 20:22:00,
2013-07-25 16:32:00,76.0,59.0,30.12,WNW,294,10.0,12.0,55,0.00,,,0.00,,2013-07-25 20:32:00,
2013-07-25 16:43:00,76.0,59.0,30.11,WNW,303,3.0,13.0,56,0.00,,,0.00,,2013-07-25 20:43:00,
2013-07-25 17:03:00,76.0,58.0,30.11,West,277,6.0,12.0,54,0.00,,,0.00,,2013-07-25 21:03:00,
2013-07-25 17:32:00,76.0,57.0,30.10,West,274,0.0,12.0,51,0.00,,,0.00,,2013-07-25 21:32:00,
2013-07-25 17:44:00,76.0,57.0,30.10,SW,216,7.0,12.0,52,0.00,,,0.00,,2013-07-25 21:44:00,
2013-07-25 17:52:00,76.0,57.0,30.10,SW,216,7.0,12.0,52,0.00,,,0.00,,2013-07-25 21:52:00,
2013-07-25 18:02:00,76.0,57.0,30.10,SW,216,7.0,12.0,52,0.00,,,0.00,,2013-07-25 22:02:00,
2013-07-25 18:12:00,76.0,57.0,30.10,SW,216,7.0,12.0,52,0.00,,,0.00,,2013-07-25 22:12:00,
2013-07-25 18:22:00,76.0,57.0,30.10,SW,216,7.0,12.0,52,0.00,,,0.00,,2013-07-25 22:22:00,
2013-07-25 18:53:00,76.0,55.0,30.10,WSW,246,4.0,12.0,49,0.00,,,0.00,,2013-07-25 22:53:00,
2013-07-25 19:02:00,76.0,55.0,30.10,WSW,246,4.0,12.0,49,0.00,,,0.00,,2013-07-25 23:02:00,
2013-07-25 19:12:00,76.0,55.0,30.10,WSW,246,4.0,12.0,49,0.00,,,0.00,,2013-07-25 23:12:00,
2013-07-25 19:22:00,75.0,51.0,30.10,WSW,255,3.0,10.0,43,0.00,,,0.00,,2013-07-25 23:22:00,
2013-07-25 19:32:00,75.0,51.0,30.10,WSW,255,3.0,10.0,43,0.00,,,0.00,,2013-07-25 23:32:00,
2013-07-25 19:52:00,74.0,47.0,30.11,WSW,254,3.0,9.0,39,0.00,,,0.00,,2013-07-25 23:52:00,
2013-07-25 20:02:00,73.0,50.0,30.11,West,263,3.0,9.0,45,0.00,,,0.00,,2013-07-26 00:02:00,
2013-07-25 20:12:00,73.0,50.0,30.10,West,263,0.0,6.0,44,0.00,,,0.00,,2013-07-26 00:12:00,
2013-07-25 20:22:00,72.0,49.0,30.10,West,263,1.0,4.0,45,0.00,,,0.00,,2013-07-26 00:22:00,
2013-07-25 20:33:00,72.0,51.0,30.09,West,263,0.0,1.0,48,0.00,,,0.00,,2013-07-26 00:33:00,
2013-07-25 20:43:00,72.0,51.0,30.09,West,263,0.0,1.0,48,0.00,,,0.00,,2013-07-26 00:43:00,
2013-07-25 20:52:00,72.0,51.0,30.09,West,263,0.0,1.0,48,0.00,,,0.00,,2013-07-26 00:52:00,
2013-07-25 21:02:00,72.0,51.0,30.09,West,263,0.0,1.0,48,0.00,,,0.00,,2013-07-26 01:02:00,
2013-07-25 21:22:00,69.0,51.0,30.10,West,263,0.0,0.0,53,0.00,,,0.00,,2013-07-26 01:22:00,
2013-07-25 21:43:00,68.0,56.0,30.10,West,263,1.0,2.0,65,0.00,,,0.00,,2013-07-26 01:43:00,
2013-07-25 21:52:00,68.0,56.0,30.10,West,263,1.0,2.0,65,0.00,,,0.00,,2013-07-26 01:52:00,
2013-07-25 22:02:00,68.0,56.0,30.10,West,263,1.0,2.0,65,0.00,,,0.00,,2013-07-26 02:02:00,
2013-07-25 22:12:00,66.0,56.0,30.09,West,263,0.0,0.0,70,0.00,,,0.00,,2013-07-26 02:12:00,
2013-07-25 22:32:00,65.0,56.0,30.09,West,263,0.0,1.0,73,0.00,,,0.00,,2013-07-26 02:32:00,
2013-07-25 22:43:00,65.0,56.0,30.09,West,263,0.0,0.0,74,0.00,,,0.00,,2013-07-26 02:43:00,
2013-07-25 22:52:00,64.0,56.0,30.09,West,263,0.0,0.0,75,0.00,,,0.00,,2013-07-26 02:52:00,
2013-07-25 23:12:00,64.0,56.0,30.11,West,263,0.0,0.0,76,0.00,,,0.00,,2013-07-26 03:12:00,
2013-07-25 23:32:00,63.0,57.0,30.11,West,263,0.0,0.0,80,0.00,,,0.00,,2013-07-26 03:32:00,
2013-07-25 23:43:00,63.0,57.0,30.11,West,263,0.0,0.0,80,0.00,,,0.00,,2013-07-26 03:43:00,
2013-07-25 23:53:00,62.0,56.0,30.11,West,263,0.0,0.0,81,0.00,,,0.00,,2013-07-26 03:53:00,